Year,Month,Day,Hour,Minute,Value (Times are PST for temperature in C)
2010,07,17,00,00,13.70
2010,07,17,00,01,13.60
2010,07,17,00,02,13.60
2010,07,17,00,03,13.60
2010,07,17,00,04,13.60
2010,07,17,00,05,13.60
2010,07,17,00,06,13.60
2010,07,17,00,07,13.50
2010,07,17,00,08,13.50
2010,07,17,00,09,13.50
2010,07,17,00,10,13.50
2010,07,17,00,11,13.50
2010,07,17,00,12,13.50
2010,07,17,00,13,13.50
2010,07,17,00,14,13.50
2010,07,17,00,15,13.40
2010,07,17,00,16,13.40
2010,07,17,00,17,13.40
2010,07,17,00,18,13.40
2010,07,17,00,19,13.40
2010,07,17,00,20,13.40
2010,07,17,00,21,13.40
2010,07,17,00,22,13.30
2010,07,17,00,23,13.30
2010,07,17,00,24,13.30
2010,07,17,00,25,13.30
2010,07,17,00,26,13.30
2010,07,17,00,27,13.30
2010,07,17,00,28,13.30
2010,07,17,00,29,13.20
2010,07,17,00,30,13.20
2010,07,17,00,31,13.20
2010,07,17,00,32,13.20
2010,07,17,00,33,13.20
2010,07,17,00,34,13.20
2010,07,17,00,35,13.20
2010,07,17,00,36,13.20
2010,07,17,00,37,13.20
2010,07,17,00,38,13.20
2010,07,17,00,39,13.20
2010,07,17,00,40,13.20
2010,07,17,00,41,13.20
2010,07,17,00,42,13.20
2010,07,17,00,43,13.20
2010,07,17,00,44,13.10
2010,07,17,00,45,13.10
2010,07,17,00,46,13.10
2010,07,17,00,47,13.10
2010,07,17,00,48,13.10
2010,07,17,00,49,13.10
2010,07,17,00,50,13.10
2010,07,17,00,51,13.10
2010,07,17,00,52,13.10
2010,07,17,00,53,13.00
2010,07,17,00,54,13.00
2010,07,17,00,55,13.00
2010,07,17,00,56,13.00
2010,07,17,00,57,13.00
2010,07,17,00,58,12.90
2010,07,17,00,59,12.90
2010,07,17,01,00,12.90
2010,07,17,01,01,12.90
2010,07,17,01,02,12.90
2010,07,17,01,03,12.90
2010,07,17,01,04,12.90
2010,07,17,01,05,12.90
2010,07,17,01,06,12.80
2010,07,17,01,07,12.80
2010,07,17,01,08,12.80
2010,07,17,01,09,12.80
2010,07,17,01,10,12.80
2010,07,17,01,11,12.80
2010,07,17,01,12,12.80
2010,07,17,01,13,12.80
2010,07,17,01,14,12.80
2010,07,17,01,15,12.70
2010,07,17,01,16,12.70
2010,07,17,01,17,12.70
2010,07,17,01,18,12.70
2010,07,17,01,19,12.70
2010,07,17,01,20,12.70
2010,07,17,01,21,12.70
2010,07,17,01,22,12.70
2010,07,17,01,23,12.60
2010,07,17,01,24,12.60
2010,07,17,01,25,12.60
2010,07,17,01,26,12.60
2010,07,17,01,27,12.60
2010,07,17,01,28,12.60
2010,07,17,01,29,12.50
2010,07,17,01,30,12.50
2010,07,17,01,31,12.50
2010,07,17,01,32,12.50
2010,07,17,01,33,12.50
2010,07,17,01,34,12.40
2010,07,17,01,35,12.40
2010,07,17,01,36,12.40
2010,07,17,01,37,12.40
2010,07,17,01,38,12.40
2010,07,17,01,39,12.40
2010,07,17,01,40,12.40
2010,07,17,01,41,12.40
2010,07,17,01,42,12.40
2010,07,17,01,43,12.40
2010,07,17,01,44,12.30
2010,07,17,01,45,12.30
2010,07,17,01,46,12.30
2010,07,17,01,47,12.30
2010,07,17,01,48,12.30
2010,07,17,01,49,12.30
2010,07,17,01,50,12.30
2010,07,17,01,51,12.30
2010,07,17,01,52,12.30
2010,07,17,01,53,12.30
2010,07,17,01,54,12.30
2010,07,17,01,55,12.30
2010,07,17,01,56,12.30
2010,07,17,01,57,12.30
2010,07,17,01,58,12.20
2010,07,17,01,59,12.20
2010,07,17,02,00,12.20
2010,07,17,02,01,12.20
2010,07,17,02,02,12.20
2010,07,17,02,03,12.20
2010,07,17,02,04,12.20
2010,07,17,02,05,12.20
2010,07,17,02,06,12.20
2010,07,17,02,07,12.20
2010,07,17,02,08,12.20
2010,07,17,02,09,12.20
2010,07,17,02,10,12.20
2010,07,17,02,11,12.20
2010,07,17,02,12,12.20
2010,07,17,02,13,12.20
2010,07,17,02,14,12.20
2010,07,17,02,15,12.20
2010,07,17,02,16,12.10
2010,07,17,02,17,12.10
2010,07,17,02,18,12.10
2010,07,17,02,19,12.10
2010,07,17,02,20,12.10
2010,07,17,02,21,12.10
2010,07,17,02,22,12.10
2010,07,17,02,23,12.10
2010,07,17,02,24,12.10
2010,07,17,02,25,12.10
2010,07,17,02,26,12.10
2010,07,17,02,27,12.00
2010,07,17,02,28,12.00
2010,07,17,02,29,12.00
2010,07,17,02,30,12.00
2010,07,17,02,31,12.00
2010,07,17,02,32,12.00
2010,07,17,02,33,12.00
2010,07,17,02,34,12.00
2010,07,17,02,35,12.00
2010,07,17,02,36,11.90
2010,07,17,02,37,11.90
2010,07,17,02,38,11.90
2010,07,17,02,39,11.90
2010,07,17,02,40,11.90
2010,07,17,02,41,11.90
2010,07,17,02,42,11.90
2010,07,17,02,43,11.90
2010,07,17,02,44,11.90
2010,07,17,02,45,11.90
2010,07,17,02,46,11.80
2010,07,17,02,47,11.80
2010,07,17,02,48,11.80
2010,07,17,02,49,11.80
2010,07,17,02,50,11.80
2010,07,17,02,51,11.80
2010,07,17,02,52,11.80
2010,07,17,02,53,11.80
2010,07,17,02,54,11.80
2010,07,17,02,55,11.80
2010,07,17,02,56,11.80
2010,07,17,02,57,11.80
2010,07,17,02,58,11.80
2010,07,17,02,59,11.80
2010,07,17,03,00,11.80
2010,07,17,03,01,11.70
2010,07,17,03,02,11.70
2010,07,17,03,03,11.70
2010,07,17,03,04,11.70
2010,07,17,03,05,11.70
2010,07,17,03,06,11.70
2010,07,17,03,07,11.60
2010,07,17,03,08,11.60
2010,07,17,03,09,11.60
2010,07,17,03,10,11.60
2010,07,17,03,11,11.60
2010,07,17,03,12,11.60
2010,07,17,03,13,11.60
2010,07,17,03,14,11.60
2010,07,17,03,15,11.60
2010,07,17,03,16,11.60
2010,07,17,03,17,11.50
2010,07,17,03,18,11.50
2010,07,17,03,19,11.50
2010,07,17,03,20,11.50
2010,07,17,03,21,11.40
2010,07,17,03,22,11.40
2010,07,17,03,23,11.40
2010,07,17,03,24,11.40
2010,07,17,03,25,11.40
2010,07,17,03,26,11.40
2010,07,17,03,27,11.40
2010,07,17,03,28,11.40
2010,07,17,03,29,11.40
2010,07,17,03,30,11.40
2010,07,17,03,31,11.40
2010,07,17,03,32,11.30
2010,07,17,03,33,11.30
2010,07,17,03,34,11.30
2010,07,17,03,35,11.30
2010,07,17,03,36,11.30
2010,07,17,03,37,11.30
2010,07,17,03,38,11.20
2010,07,17,03,39,11.20
2010,07,17,03,40,11.20
2010,07,17,03,41,11.20
2010,07,17,03,42,11.20
2010,07,17,03,43,11.20
2010,07,17,03,44,11.20
2010,07,17,03,45,11.20
2010,07,17,03,46,11.20
2010,07,17,03,47,11.20
2010,07,17,03,48,11.20
2010,07,17,03,49,11.20
2010,07,17,03,50,11.20
2010,07,17,03,51,11.20
2010,07,17,03,52,11.20
2010,07,17,03,53,11.20
2010,07,17,03,54,11.20
2010,07,17,03,55,11.20
2010,07,17,03,56,11.20
2010,07,17,03,57,11.20
2010,07,17,03,58,11.20
2010,07,17,03,59,11.20
2010,07,17,04,00,11.10
2010,07,17,04,01,11.10
2010,07,17,04,02,11.10
2010,07,17,04,03,11.10
2010,07,17,04,04,11.10
2010,07,17,04,05,11.10
2010,07,17,04,06,11.10
2010,07,17,04,07,11.10
2010,07,17,04,08,11.10
2010,07,17,04,09,11.10
2010,07,17,04,10,11.10
2010,07,17,04,11,11.10
2010,07,17,04,12,11.10
2010,07,17,04,13,11.00
2010,07,17,04,14,11.00
2010,07,17,04,15,11.00
2010,07,17,04,16,10.90
2010,07,17,04,17,10.90
2010,07,17,04,18,10.90
2010,07,17,04,19,10.90
2010,07,17,04,20,10.90
2010,07,17,04,21,10.90
2010,07,17,04,22,10.80
2010,07,17,04,23,10.80
2010,07,17,04,24,10.80
2010,07,17,04,25,10.80
2010,07,17,04,26,10.80
2010,07,17,04,27,10.80
2010,07,17,04,28,10.80
2010,07,17,04,29,10.80
2010,07,17,04,30,10.80
2010,07,17,04,31,10.80
2010,07,17,04,32,10.80
2010,07,17,04,33,10.80
2010,07,17,04,34,10.80
2010,07,17,04,35,10.80
2010,07,17,04,36,10.80
2010,07,17,04,37,10.80
2010,07,17,04,38,10.80
2010,07,17,04,39,10.80
2010,07,17,04,40,10.80
2010,07,17,04,41,10.80
2010,07,17,04,42,10.80
2010,07,17,04,43,10.80
2010,07,17,04,44,10.80
2010,07,17,04,45,10.80
2010,07,17,04,46,10.80
2010,07,17,04,47,10.80
2010,07,17,04,48,10.80
2010,07,17,04,49,10.80
2010,07,17,04,50,10.80
2010,07,17,04,51,10.80
2010,07,17,04,52,10.80
2010,07,17,04,53,10.80
2010,07,17,04,54,10.80
2010,07,17,04,55,10.80
2010,07,17,04,56,10.80
2010,07,17,04,57,10.80
2010,07,17,04,58,10.80
2010,07,17,04,59,10.80
2010,07,17,05,00,10.80
2010,07,17,05,01,10.80
2010,07,17,05,02,10.80
2010,07,17,05,03,10.80
2010,07,17,05,04,10.80
2010,07,17,05,05,10.80
2010,07,17,05,06,10.80
2010,07,17,05,07,10.80
2010,07,17,05,08,10.80
2010,07,17,05,09,10.70
2010,07,17,05,10,10.70
2010,07,17,05,11,10.70
2010,07,17,05,12,10.70
2010,07,17,05,13,10.70
2010,07,17,05,14,10.70
2010,07,17,05,15,10.70
2010,07,17,05,16,10.70
2010,07,17,05,17,10.60
2010,07,17,05,18,10.70
2010,07,17,05,19,10.70
2010,07,17,05,20,10.60
2010,07,17,05,21,10.60
2010,07,17,05,22,10.70
2010,07,17,05,23,10.70
2010,07,17,05,24,10.60
2010,07,17,05,25,10.70
2010,07,17,05,26,10.70
2010,07,17,05,27,10.70
2010,07,17,05,28,10.70
2010,07,17,05,29,10.70
2010,07,17,05,30,10.70
2010,07,17,05,31,10.60
2010,07,17,05,32,10.60
2010,07,17,05,33,10.60
2010,07,17,05,34,10.60
2010,07,17,05,35,10.60
2010,07,17,05,36,10.60
2010,07,17,05,37,10.60
2010,07,17,05,38,10.60
2010,07,17,05,39,10.60
2010,07,17,05,40,10.60
2010,07,17,05,41,10.60
2010,07,17,05,42,10.60
2010,07,17,05,43,10.60
2010,07,17,05,44,10.60
2010,07,17,05,45,10.60
2010,07,17,05,46,10.60
2010,07,17,05,47,10.60
2010,07,17,05,48,10.60
2010,07,17,05,49,10.60
2010,07,17,05,50,10.60
2010,07,17,05,51,10.60
2010,07,17,05,52,10.60
2010,07,17,05,53,10.60
2010,07,17,05,54,10.60
2010,07,17,05,55,10.60
2010,07,17,05,56,10.60
2010,07,17,05,57,10.60
2010,07,17,05,58,10.60
2010,07,17,05,59,10.60
2010,07,17,06,00,10.60
2010,07,17,06,01,10.60
2010,07,17,06,02,10.60
2010,07,17,06,03,10.60
2010,07,17,06,04,10.60
2010,07,17,06,05,10.70
2010,07,17,06,06,10.70
2010,07,17,06,07,10.70
2010,07,17,06,08,10.80
2010,07,17,06,09,10.80
2010,07,17,06,10,10.90
2010,07,17,06,11,10.90
2010,07,17,06,12,11.00
2010,07,17,06,13,11.00
2010,07,17,06,14,11.10
2010,07,17,06,15,11.20
2010,07,17,06,16,11.30
2010,07,17,06,17,11.30
2010,07,17,06,18,11.40
2010,07,17,06,19,11.40
2010,07,17,06,20,11.40
2010,07,17,06,21,11.50
2010,07,17,06,22,11.50
2010,07,17,06,23,11.60
2010,07,17,06,24,11.60
2010,07,17,06,25,11.70
2010,07,17,06,26,11.70
2010,07,17,06,27,11.70
2010,07,17,06,28,11.70
2010,07,17,06,29,11.80
2010,07,17,06,30,11.80
2010,07,17,06,31,11.80
2010,07,17,06,32,11.90
2010,07,17,06,33,11.90
2010,07,17,06,34,12.00
2010,07,17,06,35,12.10
2010,07,17,06,36,12.10
2010,07,17,06,37,12.20
2010,07,17,06,38,12.20
2010,07,17,06,39,12.30
2010,07,17,06,40,12.30
2010,07,17,06,41,12.40
2010,07,17,06,42,12.50
2010,07,17,06,43,12.50
2010,07,17,06,44,12.60
2010,07,17,06,45,12.70
2010,07,17,06,46,12.80
2010,07,17,06,47,12.80
2010,07,17,06,48,12.90
2010,07,17,06,49,12.90
2010,07,17,06,50,13.00
2010,07,17,06,51,13.00
2010,07,17,06,52,13.10
2010,07,17,06,53,13.10
2010,07,17,06,54,13.10
2010,07,17,06,55,13.10
2010,07,17,06,56,13.20
2010,07,17,06,57,13.20
2010,07,17,06,58,13.30
2010,07,17,06,59,13.30
2010,07,17,07,00,13.40
2010,07,17,07,01,13.40
2010,07,17,07,02,13.50
2010,07,17,07,03,13.60
2010,07,17,07,04,13.70
2010,07,17,07,05,13.80
2010,07,17,07,06,13.80
2010,07,17,07,07,13.90
2010,07,17,07,08,14.00
2010,07,17,07,09,14.10
2010,07,17,07,10,14.20
2010,07,17,07,11,14.30
2010,07,17,07,12,14.40
2010,07,17,07,13,14.50
2010,07,17,07,14,14.50
2010,07,17,07,15,14.60
2010,07,17,07,16,14.60
2010,07,17,07,17,14.70
2010,07,17,07,18,14.70
2010,07,17,07,19,14.80
2010,07,17,07,20,14.80
2010,07,17,07,21,14.80
2010,07,17,07,22,14.90
2010,07,17,07,23,14.90
2010,07,17,07,24,14.90
2010,07,17,07,25,15.00
2010,07,17,07,26,15.00
2010,07,17,07,27,15.00
2010,07,17,07,28,15.10
2010,07,17,07,29,15.10
2010,07,17,07,30,15.10
2010,07,17,07,31,15.20
2010,07,17,07,32,15.30
2010,07,17,07,33,15.30
2010,07,17,07,34,15.40
2010,07,17,07,35,15.40
2010,07,17,07,36,15.50
2010,07,17,07,37,15.60
2010,07,17,07,38,15.60
2010,07,17,07,39,15.60
2010,07,17,07,40,15.60
2010,07,17,07,41,15.60
2010,07,17,07,42,15.70
2010,07,17,07,43,15.70
2010,07,17,07,44,15.80
2010,07,17,07,45,15.90
2010,07,17,07,46,16.00
2010,07,17,07,47,16.10
2010,07,17,07,48,16.10
2010,07,17,07,49,16.10
2010,07,17,07,50,16.20
2010,07,17,07,51,16.20
2010,07,17,07,52,16.30
2010,07,17,07,53,16.30
2010,07,17,07,54,16.40
2010,07,17,07,55,16.40
2010,07,17,07,56,16.50
2010,07,17,07,57,16.50
2010,07,17,07,58,16.60
2010,07,17,07,59,16.50
2010,07,17,08,00,16.50
2010,07,17,08,01,16.50
2010,07,17,08,02,16.60
2010,07,17,08,03,16.60
2010,07,17,08,04,16.50
2010,07,17,08,05,16.50
2010,07,17,08,06,16.50
2010,07,17,08,07,16.50
2010,07,17,08,08,16.60
2010,07,17,08,09,16.60
2010,07,17,08,10,16.70
2010,07,17,08,11,16.70
2010,07,17,08,12,16.80
2010,07,17,08,13,16.80
2010,07,17,08,14,16.90
2010,07,17,08,15,16.90
2010,07,17,08,16,17.00
2010,07,17,08,17,17.00
2010,07,17,08,18,17.00
2010,07,17,08,19,16.90
2010,07,17,08,20,16.80
2010,07,17,08,21,16.80
2010,07,17,08,22,16.80
2010,07,17,08,23,16.80
2010,07,17,08,24,16.80
2010,07,17,08,25,16.80
2010,07,17,08,26,16.90
2010,07,17,08,27,16.90
2010,07,17,08,28,17.00
2010,07,17,08,29,17.10
2010,07,17,08,30,17.10
2010,07,17,08,31,17.10
2010,07,17,08,32,17.10
2010,07,17,08,33,17.00
2010,07,17,08,34,17.00
2010,07,17,08,35,17.00
2010,07,17,08,36,17.00
2010,07,17,08,37,17.10
2010,07,17,08,38,17.20
2010,07,17,08,39,17.20
2010,07,17,08,40,17.30
2010,07,17,08,41,17.20
2010,07,17,08,42,17.20
2010,07,17,08,43,17.20
2010,07,17,08,44,17.20
2010,07,17,08,45,17.30
2010,07,17,08,46,17.30
2010,07,17,08,47,17.30
2010,07,17,08,48,17.40
2010,07,17,08,49,17.40
2010,07,17,08,50,17.40
2010,07,17,08,51,17.40
2010,07,17,08,52,17.40
2010,07,17,08,53,17.40
2010,07,17,08,54,17.40
2010,07,17,08,55,17.50
2010,07,17,08,56,17.50
2010,07,17,08,57,17.60
2010,07,17,08,58,17.50
2010,07,17,08,59,17.50
2010,07,17,09,00,17.40
2010,07,17,09,01,17.40
2010,07,17,09,02,17.40
2010,07,17,09,03,17.40
2010,07,17,09,04,17.40
2010,07,17,09,05,17.50
2010,07,17,09,06,17.50
2010,07,17,09,07,17.60
2010,07,17,09,08,17.60
2010,07,17,09,09,17.60
2010,07,17,09,10,17.60
2010,07,17,09,11,17.70
2010,07,17,09,12,17.70
2010,07,17,09,13,17.80
2010,07,17,09,14,17.90
2010,07,17,09,15,17.90
2010,07,17,09,16,18.00
2010,07,17,09,17,18.00
2010,07,17,09,18,18.00
2010,07,17,09,19,18.00
2010,07,17,09,20,18.00
2010,07,17,09,21,18.00
2010,07,17,09,22,17.90
2010,07,17,09,23,17.90
2010,07,17,09,24,17.90
2010,07,17,09,25,17.90
2010,07,17,09,26,17.90
2010,07,17,09,27,17.90
2010,07,17,09,28,17.90
2010,07,17,09,29,17.90
2010,07,17,09,30,17.80
2010,07,17,09,31,17.80
2010,07,17,09,32,17.90
2010,07,17,09,33,17.90
2010,07,17,09,34,17.90
2010,07,17,09,35,18.00
2010,07,17,09,36,18.10
2010,07,17,09,37,18.20
2010,07,17,09,38,18.30
2010,07,17,09,39,18.30
2010,07,17,09,40,18.30
2010,07,17,09,41,18.30
2010,07,17,09,42,18.40
2010,07,17,09,43,18.40
2010,07,17,09,44,18.40
2010,07,17,09,45,18.40
2010,07,17,09,46,18.50
2010,07,17,09,47,18.50
2010,07,17,09,48,18.60
2010,07,17,09,49,18.60
2010,07,17,09,50,18.70
2010,07,17,09,51,18.70
2010,07,17,09,52,18.60
2010,07,17,09,53,18.60
2010,07,17,09,54,18.60
2010,07,17,09,55,18.50
2010,07,17,09,56,18.40
2010,07,17,09,57,18.40
2010,07,17,09,58,18.40
2010,07,17,09,59,18.40
2010,07,17,10,00,18.50
2010,07,17,10,01,18.50
2010,07,17,10,02,18.60
2010,07,17,10,03,18.60
2010,07,17,10,04,18.70
2010,07,17,10,05,18.80
2010,07,17,10,06,18.80
2010,07,17,10,07,18.80
2010,07,17,10,08,18.80
2010,07,17,10,09,18.90
2010,07,17,10,10,18.90
2010,07,17,10,11,18.90
2010,07,17,10,12,18.90
2010,07,17,10,13,18.80
2010,07,17,10,14,18.80
2010,07,17,10,15,18.90
2010,07,17,10,16,19.00
2010,07,17,10,17,18.90
2010,07,17,10,18,18.80
2010,07,17,10,19,18.70
2010,07,17,10,20,18.60
2010,07,17,10,21,18.40
2010,07,17,10,22,18.30
2010,07,17,10,23,18.10
2010,07,17,10,24,18.00
2010,07,17,10,25,17.90
2010,07,17,10,26,17.80
2010,07,17,10,27,17.80
2010,07,17,10,28,17.80
2010,07,17,10,29,17.90
2010,07,17,10,30,17.90
2010,07,17,10,31,17.90
2010,07,17,10,32,18.00
2010,07,17,10,33,18.00
2010,07,17,10,34,18.10
2010,07,17,10,35,18.20
2010,07,17,10,36,18.20
2010,07,17,10,37,18.30
2010,07,17,10,38,18.30
2010,07,17,10,39,18.30
2010,07,17,10,40,18.20
2010,07,17,10,41,18.20
2010,07,17,10,42,18.10
2010,07,17,10,43,18.10
2010,07,17,10,44,18.10
2010,07,17,10,45,18.10
2010,07,17,10,46,18.20
2010,07,17,10,47,18.20
2010,07,17,10,48,18.20
2010,07,17,10,49,18.30
2010,07,17,10,50,18.40
2010,07,17,10,51,18.50
2010,07,17,10,52,18.60
2010,07,17,10,53,18.60
2010,07,17,10,54,18.60
2010,07,17,10,55,18.70
2010,07,17,10,56,18.70
2010,07,17,10,57,18.60
2010,07,17,10,58,18.60
2010,07,17,10,59,18.50
2010,07,17,11,00,18.40
2010,07,17,11,01,18.40
2010,07,17,11,02,18.40
2010,07,17,11,03,18.40
2010,07,17,11,04,18.40
2010,07,17,11,05,18.50
2010,07,17,11,06,18.60
2010,07,17,11,07,18.60
2010,07,17,11,08,18.50
2010,07,17,11,09,18.40
2010,07,17,11,10,18.40
2010,07,17,11,11,18.30
2010,07,17,11,12,18.30
2010,07,17,11,13,18.30
2010,07,17,11,14,18.20
2010,07,17,11,15,18.10
2010,07,17,11,16,18.10
2010,07,17,11,17,18.20
2010,07,17,11,18,18.30
2010,07,17,11,19,18.30
2010,07,17,11,20,18.30
2010,07,17,11,21,18.30
2010,07,17,11,22,18.30
2010,07,17,11,23,18.30
2010,07,17,11,24,18.30
2010,07,17,11,25,18.30
2010,07,17,11,26,18.30
2010,07,17,11,27,18.30
2010,07,17,11,28,18.40
2010,07,17,11,29,18.40
2010,07,17,11,30,18.50
2010,07,17,11,31,18.60
2010,07,17,11,32,18.80
2010,07,17,11,33,18.80
2010,07,17,11,34,18.80
2010,07,17,11,35,18.80
2010,07,17,11,36,18.80
2010,07,17,11,37,18.80
2010,07,17,11,38,18.80
2010,07,17,11,39,18.80
2010,07,17,11,40,18.70
2010,07,17,11,41,18.70
2010,07,17,11,42,18.70
2010,07,17,11,43,18.80
2010,07,17,11,44,18.90
2010,07,17,11,45,19.00
2010,07,17,11,46,19.00
2010,07,17,11,47,19.10
2010,07,17,11,48,19.10
2010,07,17,11,49,19.20
2010,07,17,11,50,19.20
2010,07,17,11,51,19.20
2010,07,17,11,52,19.20
2010,07,17,11,53,19.20
2010,07,17,11,54,19.30
2010,07,17,11,55,19.30
2010,07,17,11,56,19.30
2010,07,17,11,57,19.30
2010,07,17,11,58,19.10
2010,07,17,11,59,19.10
2010,07,17,12,00,19.10
2010,07,17,12,01,19.10
2010,07,17,12,02,19.00
2010,07,17,12,03,19.00
2010,07,17,12,04,18.90
2010,07,17,12,05,18.90
2010,07,17,12,06,18.90
2010,07,17,12,07,18.90
2010,07,17,12,08,19.00
2010,07,17,12,09,19.00
2010,07,17,12,10,18.90
2010,07,17,12,11,18.90
2010,07,17,12,12,18.80
2010,07,17,12,13,18.90
2010,07,17,12,14,18.90
2010,07,17,12,15,18.90
2010,07,17,12,16,18.90
2010,07,17,12,17,18.90
2010,07,17,12,18,18.90
2010,07,17,12,19,19.00
2010,07,17,12,20,19.10
2010,07,17,12,21,19.10
2010,07,17,12,22,19.20
2010,07,17,12,23,19.20
2010,07,17,12,24,19.30
2010,07,17,12,25,19.30
2010,07,17,12,26,19.30
2010,07,17,12,27,19.40
2010,07,17,12,28,19.60
2010,07,17,12,29,19.80
2010,07,17,12,30,19.90
2010,07,17,12,31,20.00
2010,07,17,12,32,20.00
2010,07,17,12,33,19.90
2010,07,17,12,34,19.70
2010,07,17,12,35,19.50
2010,07,17,12,36,19.40
2010,07,17,12,37,19.30
2010,07,17,12,38,19.20
2010,07,17,12,39,19.10
2010,07,17,12,40,19.20
2010,07,17,12,41,19.20
2010,07,17,12,42,19.20
2010,07,17,12,43,19.20
2010,07,17,12,44,19.20
2010,07,17,12,45,19.20
2010,07,17,12,46,19.00
2010,07,17,12,47,18.90
2010,07,17,12,48,18.90
2010,07,17,12,49,18.90
2010,07,17,12,50,18.80
2010,07,17,12,51,18.80
2010,07,17,12,52,18.80
2010,07,17,12,53,18.80
2010,07,17,12,54,18.80
2010,07,17,12,55,18.80
2010,07,17,12,56,18.80
2010,07,17,12,57,18.80
2010,07,17,12,58,18.90
2010,07,17,12,59,18.90
2010,07,17,13,00,18.90
2010,07,17,13,01,18.90
2010,07,17,13,02,18.80
2010,07,17,13,03,18.80
2010,07,17,13,04,18.70
2010,07,17,13,05,18.70
2010,07,17,13,06,18.70
2010,07,17,13,07,18.60
2010,07,17,13,08,18.60
2010,07,17,13,09,18.50
2010,07,17,13,10,18.40
2010,07,17,13,11,18.30
2010,07,17,13,12,18.30
2010,07,17,13,13,18.30
2010,07,17,13,14,18.30
2010,07,17,13,15,18.30
2010,07,17,13,16,18.30
2010,07,17,13,17,18.40
2010,07,17,13,18,18.50
2010,07,17,13,19,18.50
2010,07,17,13,20,18.40
2010,07,17,13,21,18.50
2010,07,17,13,22,18.60
2010,07,17,13,23,18.70
2010,07,17,13,24,18.70
2010,07,17,13,25,18.80
2010,07,17,13,26,18.90
2010,07,17,13,27,19.10
2010,07,17,13,28,19.20
2010,07,17,13,29,19.30
2010,07,17,13,30,19.30
2010,07,17,13,31,19.20
2010,07,17,13,32,19.20
2010,07,17,13,33,19.20
2010,07,17,13,34,19.20
2010,07,17,13,35,19.10
2010,07,17,13,36,19.10
2010,07,17,13,37,19.10
2010,07,17,13,38,19.10
2010,07,17,13,39,19.20
2010,07,17,13,40,19.30
2010,07,17,13,41,19.40
2010,07,17,13,42,19.60
2010,07,17,13,43,19.50
2010,07,17,13,44,19.40
2010,07,17,13,45,19.30
2010,07,17,13,46,19.20
2010,07,17,13,47,19.10
2010,07,17,13,48,19.10
2010,07,17,13,49,19.20
2010,07,17,13,50,19.20
2010,07,17,13,51,19.20
2010,07,17,13,52,19.20
2010,07,17,13,53,19.20
2010,07,17,13,54,19.20
2010,07,17,13,55,19.30
2010,07,17,13,56,19.30
2010,07,17,13,57,19.30
2010,07,17,13,58,19.10
2010,07,17,13,59,19.00
2010,07,17,14,00,19.00
2010,07,17,14,01,18.80
2010,07,17,14,02,18.60
2010,07,17,14,03,18.50
2010,07,17,14,04,18.40
2010,07,17,14,05,18.40
2010,07,17,14,06,18.40
2010,07,17,14,07,18.60
2010,07,17,14,08,18.60
2010,07,17,14,09,18.60
2010,07,17,14,10,18.60
2010,07,17,14,11,18.60
2010,07,17,14,12,18.50
2010,07,17,14,13,18.40
2010,07,17,14,14,18.40
2010,07,17,14,15,18.40
2010,07,17,14,16,18.40
2010,07,17,14,17,18.40
2010,07,17,14,18,18.40
2010,07,17,14,19,18.40
2010,07,17,14,20,18.40
2010,07,17,14,21,18.30
2010,07,17,14,22,18.30
2010,07,17,14,23,18.30
2010,07,17,14,24,18.30
2010,07,17,14,25,18.30
2010,07,17,14,26,18.30
2010,07,17,14,27,18.30
2010,07,17,14,28,18.40
2010,07,17,14,29,18.40
2010,07,17,14,30,18.30
2010,07,17,14,31,18.30
2010,07,17,14,32,18.30
2010,07,17,14,33,18.30
2010,07,17,14,34,18.30
2010,07,17,14,35,18.40
2010,07,17,14,36,18.40
2010,07,17,14,37,18.50
2010,07,17,14,38,18.60
2010,07,17,14,39,18.70
2010,07,17,14,40,18.80
2010,07,17,14,41,18.90
2010,07,17,14,42,19.00
2010,07,17,14,43,19.10
2010,07,17,14,44,19.20
2010,07,17,14,45,19.20
2010,07,17,14,46,19.20
2010,07,17,14,47,19.10
2010,07,17,14,48,19.10
2010,07,17,14,49,19.10
2010,07,17,14,50,19.00
2010,07,17,14,51,18.80
2010,07,17,14,52,18.60
2010,07,17,14,53,18.60
2010,07,17,14,54,18.60
2010,07,17,14,55,18.70
2010,07,17,14,56,18.80
2010,07,17,14,57,18.80
2010,07,17,14,58,18.70
2010,07,17,14,59,18.70
2010,07,17,15,00,18.60
2010,07,17,15,01,18.50
2010,07,17,15,02,18.40
2010,07,17,15,03,18.30
2010,07,17,15,04,18.30
2010,07,17,15,05,18.20
2010,07,17,15,06,18.30
2010,07,17,15,07,18.50
2010,07,17,15,08,18.50
2010,07,17,15,09,18.40
2010,07,17,15,10,18.30
2010,07,17,15,11,18.20
2010,07,17,15,12,18.20
2010,07,17,15,13,18.10
2010,07,17,15,14,18.00
2010,07,17,15,15,17.90
2010,07,17,15,16,17.90
2010,07,17,15,17,17.80
2010,07,17,15,18,17.70
2010,07,17,15,19,17.70
2010,07,17,15,20,17.70
2010,07,17,15,21,17.80
2010,07,17,15,22,17.70
2010,07,17,15,23,17.70
2010,07,17,15,24,17.70
2010,07,17,15,25,17.70
2010,07,17,15,26,17.80
2010,07,17,15,27,17.80
2010,07,17,15,28,17.80
2010,07,17,15,29,17.90
2010,07,17,15,30,18.00
2010,07,17,15,31,18.20
2010,07,17,15,32,18.30
2010,07,17,15,33,18.30
2010,07,17,15,34,18.30
2010,07,17,15,35,18.30
2010,07,17,15,36,18.30
2010,07,17,15,37,18.40
2010,07,17,15,38,18.50
2010,07,17,15,39,18.60
2010,07,17,15,40,18.60
2010,07,17,15,41,18.60
2010,07,17,15,42,18.60
2010,07,17,15,43,18.60
2010,07,17,15,44,18.70
2010,07,17,15,45,18.80
2010,07,17,15,46,18.80
2010,07,17,15,47,18.90
2010,07,17,15,48,19.00
2010,07,17,15,49,19.10
2010,07,17,15,50,19.10
2010,07,17,15,51,19.10
2010,07,17,15,52,19.20
2010,07,17,15,53,19.30
2010,07,17,15,54,19.30
2010,07,17,15,55,19.30
2010,07,17,15,56,19.30
2010,07,17,15,57,19.20
2010,07,17,15,58,19.10
2010,07,17,15,59,19.00
2010,07,17,16,00,18.90
2010,07,17,16,01,18.90
2010,07,17,16,02,19.00
2010,07,17,16,03,19.00
2010,07,17,16,04,19.00
2010,07,17,16,05,18.90
2010,07,17,16,06,18.80
2010,07,17,16,07,18.60
2010,07,17,16,08,18.50
2010,07,17,16,09,18.40
2010,07,17,16,10,18.30
2010,07,17,16,11,18.20
2010,07,17,16,12,18.20
2010,07,17,16,13,18.30
2010,07,17,16,14,18.30
2010,07,17,16,15,18.30
2010,07,17,16,16,18.30
2010,07,17,16,17,18.30
2010,07,17,16,18,18.40
2010,07,17,16,19,18.40
2010,07,17,16,20,18.40
2010,07,17,16,21,18.40
2010,07,17,16,22,18.50
2010,07,17,16,23,18.60
2010,07,17,16,24,18.70
2010,07,17,16,25,18.70
2010,07,17,16,26,18.70
2010,07,17,16,27,18.70
2010,07,17,16,28,18.70
2010,07,17,16,29,18.70
2010,07,17,16,30,18.70
2010,07,17,16,31,18.70
2010,07,17,16,32,18.70
2010,07,17,16,33,18.60
2010,07,17,16,34,18.60
2010,07,17,16,35,18.70
2010,07,17,16,36,18.80
2010,07,17,16,37,18.80
2010,07,17,16,38,18.90
2010,07,17,16,39,19.00
2010,07,17,16,40,19.00
2010,07,17,16,41,19.10
2010,07,17,16,42,19.10
2010,07,17,16,43,19.10
2010,07,17,16,44,19.10
2010,07,17,16,45,19.20
2010,07,17,16,46,19.20
2010,07,17,16,47,19.20
2010,07,17,16,48,19.20
2010,07,17,16,49,19.30
2010,07,17,16,50,19.30
2010,07,17,16,51,19.30
2010,07,17,16,52,19.30
2010,07,17,16,53,19.40
2010,07,17,16,54,19.40
2010,07,17,16,55,19.50
2010,07,17,16,56,19.60
2010,07,17,16,57,19.70
2010,07,17,16,58,19.80
2010,07,17,16,59,19.80
2010,07,17,17,00,19.90
2010,07,17,17,01,20.00
2010,07,17,17,02,20.10
2010,07,17,17,03,20.20
2010,07,17,17,04,20.30
2010,07,17,17,05,20.40
2010,07,17,17,06,20.50
2010,07,17,17,07,20.50
2010,07,17,17,08,20.60
2010,07,17,17,09,20.70
2010,07,17,17,10,20.80
2010,07,17,17,11,20.90
2010,07,17,17,12,21.00
2010,07,17,17,13,21.10
2010,07,17,17,14,21.10
2010,07,17,17,15,21.20
2010,07,17,17,16,21.30
2010,07,17,17,17,21.30
2010,07,17,17,18,21.40
2010,07,17,17,19,21.40